Wind_Speed
12 12 12 12 11 11 10 10 11 11 11 11 11 11 12 12 12 12 12 12 12 12 12 12 13 13 14 14 14 15 15 16 16 17 17 17 18 18 18 18 19 19 19
15 15 14 14 14 13 12 12 13 13 13 13 12 13 13 13 13 14 14 14 14 14 14 14 14 15 16 16 16 16 16 17 17 18 18 18 18 19 19 20 20 19 19
18 17 16 16 16 15 14 14 15 15 15 14 14 14 14 15 15 15 15 15 15 15 15 15 15 16 17 17 17 18 18 18 19 19 19 20 20 20 21 21 21 21 20
20 20 19 19 18 18 17 17 17 17 17 17 16 16 17 17 18 17 16 17 17 17 17 17 18 19 19 19 19 19 20 20 20 20 20 21 21 21 21 22 22 22 22
22 21 21 20 20 20 20 20 20 20 20 20 20 20 20 19 19 19 19 19 19 19 20 20 21 22 22 21 21 21 21 21 22 22 22 22 23 22 22 23 23 23 23
24 24 24 23 23 23 24 24 24 23 23 23 22 22 22 22 22 22 22 22 22 22 22 23 23 23 23 23 23 23 22 22 23 23 24 24 23 23 23 23 23 23 24
28 27 27 27 27 27 27 27 26 27 26 25 25 25 25 25 24 24 24 25 24 24 25 25 25 26 25 25 26 25 24 24 24 24 24 25 25 24 24 24 24 24 24
31 30 29 29 30 30 29 29 29 29 29 28 28 28 27 27 27 27 27 26 26 26 26 27 27 28 28 29 28 27 26 25 25 25 25 25 26 26 26 25 25 26 26
34 34 33 32 33 33 33 33 33 33 32 31 31 31 30 29 29 29 29 28 28 28 28 28 29 29 29 29 28 27 27 26 26 27 26 26 27 27 26 26 27 27 28
36 36 36 36 36 36 35 36 36 36 36 36 35 34 34 32 31 30 30 29 29 29 30 30 30 30 29 28 27 27 27 27 27 28 28 28 28 28 28 28 28 29 29
39 39 40 39 39 40 39 39 39 39 39 38 37 36 35 33 31 31 30 30 30 31 31 31 31 30 30 28 28 28 27 28 28 29 29 29 29 29 29 30 30 30 31
41 41 41 42 42 43 43 42 41 41 40 40 39 37 35 34 33 33 33 33 32 32 32 32 33 32 30 29 29 29 29 29 30 30 30 30 31 31 31 32 32 32 32
42 42 43 43 43 44 44 44 44 44 43 42 41 38 37 36 36 36 36 36 36 35 33 33 33 33 32 31 31 31 31 31 31 30 30 31 32 32 33 33 34 33 33
43 44 44 44 45 45 46 46 46 46 45 43 42 40 38 38 38 38 38 37 37 37 35 35 35 34 33 33 33 33 33 33 32 31 31 32 32 32 33 33 33 33 33
42 43 44 45 46 46 47 47 46 45 43 43 42 41 40 40 39 39 39 39 38 38 37 37 37 36 34 34 34 34 34 34 34 34 34 34 33 33 34 34 34 34 34
43 44 45 45 46 46 46 46 44 43 42 43 43 42 42 41 41 39 39 37 37 38 38 38 37 35 35 35 35 35 35 35 35 34 35 35 35 35 35 35 35 35 34
44 44 44 44 44 44 43 43 43 43 43 43 42 41 41 40 40 40 39 39 38 38 38 37 37 36 35 35 36 36 36 36 36 36 36 36 36 36 35 36 35 35 36
44 44 44 43 43 43 43 43 43 42 42 42 42 42 41 40 40 40 41 40 40 40 39 37 37 36 35 36 36 37 36 36 36 37 37 37 36 37 37 36 36 36 36
43 43 43 43 43 43 43 43 42 41 41 42 42 42 41 40 40 40 41 40 39 39 39 38 38 37 36 36 35 35 35 35 36 36 36 37 37 37 37 37 37 37 36
41 41 42 42 42 42 42 42 42 41 41 41 41 40 40 40 39 39 38 38 38 38 37 37 36 35 35 34 34 35 35 36 36 36 37 37 37 37 37 37 37 37 37
40 40 39 39 39 40 39 40 39 39 39 39 39 39 38 37 36 36 36 37 36 36 36 35 34 34 34 34 34 34 34 34 35 36 36 36 36 36 36 36 37 38 37
37 37 36 37 37 37 37 37 37 37 37 36 36 36 35 36 35 34 34 34 34 34 34 34 33 33 33 33 33 33 33 34 34 35 35 35 36 36 36 37 38 38 37
34 34 34 34 34 33 34 35 35 35 35 34 34 35 34 35 35 34 34 33 33 34 33 33 33 33 33 32 33 33 33 33 34 34 34 34 34 35 35 35 36 36 36
30 29 29 29 30 30 31 32 32 32 32 31 32 32 32 33 33 33 33 33 32 31 31 31 31 31 31 31 32 32 32 32 33 33 34 33 33 33 33 33 33 34 34
27 26 26 26 27 28 28 29 30 30 30 29 29 29 29 30 30 31 31 31 31 30 30 29 29 29 30 31 31 32 32 32 32 33 33 33 32 32 32 32 32 33 33
24 24 24 25 26 27 27 27 27 27 27 27 27 28 27 28 28 29 30 30 30 29 28 28 28 28 29 30 31 31 30 30 31 31 31 31 32 32 31 31 31 32 32
Wind_Direction
290 293 297 298 299 298 299 304 309 312 316 320 320 320 320 317 313 308 306 301 297 299 300 299 298 299 300 301 302 302 298 294 292 291 292 292 293 293 294 293 293 292 291
288 290 293 296 299 295 293 297 300 303 305 305 306 309 313 314 311 307 303 302 299 298 299 298 296 295 297 300 299 300 300 297 295 294 293 292 292 293 293 293 291 292 292
282 286 288 291 294 293 292 294 295 297 298 298 300 303 308 308 308 308 304 299 298 298 297 296 295 297 297 298 298 297 298 297 297 294 292 291 292 293 292 292 290 292 292
276 279 282 285 287 287 286 288 290 292 293 295 295 297 300 301 301 301 301 299 296 294 293 295 297 297 297 297 296 296 296 296 296 296 295 293 292 292 292 292 291 291 290
271 274 277 279 281 282 282 284 287 289 290 289 289 291 293 294 294 294 293 295 295 295 292 292 293 295 296 295 296 295 294 294 294 294 294 294 293 292 291 291 291 291 291
268 270 272 274 276 278 280 282 285 287 288 287 286 286 288 288 288 288 289 290 289 291 291 290 291 290 293 294 295 295 294 294 293 293 293 294 293 293 292 291 290 288 289
267 268 270 273 274 275 277 280 282 283 283 284 285 285 285 285 284 284 285 285 286 286 287 289 290 288 289 291 293 291 292 292 293 293 294 293 293 294 294 293 291 291 290
268 269 270 272 274 274 274 275 277 279 279 278 281 282 282 282 283 282 281 282 283 284 285 287 289 288 287 287 287 288 289 291 290 291 293 293 293 293 293 293 292 291 290
271 270 270 272 272 273 274 275 277 277 277 276 277 278 278 279 280 281 281 281 282 283 284 285 286 287 286 287 285 285 287 286 287 288 290 292 293 294 294 293 291 289 289
270 271 272 272 271 271 272 274 275 275 276 276 275 275 275 275 278 280 280 280 281 282 282 283 285 286 287 288 287 287 287 285 285 287 289 292 294 295 294 293 292 291 290
268 269 270 271 273 274 274 274 274 275 276 276 277 275 274 276 278 279 279 279 279 280 281 281 284 286 286 286 286 287 286 285 285 287 289 291 293 293 292 292 292 290 289
269 270 271 271 272 274 275 276 276 276 276 277 277 276 280 279 277 277 278 278 279 279 279 280 282 282 283 284 285 286 285 285 286 287 288 289 290 291 291 291 291 290 289
268 269 270 271 272 273 274 274 274 275 276 276 278 277 280 279 277 277 276 276 278 278 278 280 281 280 280 281 282 283 283 284 285 286 288 289 289 290 290 291 291 290 289
268 268 269 270 271 272 273 273 273 273 273 273 274 275 276 276 277 278 277 278 280 278 278 278 279 279 279 279 280 281 281 282 284 286 287 287 288 289 290 290 291 291 291
269 269 269 270 271 271 272 273 274 273 272 273 273 273 274 275 277 277 276 277 278 277 279 279 278 276 277 277 278 279 279 280 282 284 285 285 286 287 288 288 289 290 290
269 270 271 271 272 272 272 272 271 273 274 274 275 275 276 276 275 275 275 277 278 279 279 279 279 276 276 275 276 277 278 279 281 282 282 283 283 284 286 287 288 288 288
270 270 270 272 272 273 272 271 272 272 272 272 273 274 275 275 275 275 275 277 277 278 278 278 278 277 275 275 276 277 277 278 278 278 279 281 282 282 284 286 287 287 287
270 270 270 271 272 272 273 273 273 271 269 270 271 273 273 273 274 274 274 275 275 276 278 277 276 275 275 275 276 276 276 277 277 278 278 279 281 281 282 283 284 286 286
271 270 270 271 272 272 273 273 273 273 271 270 271 271 271 272 273 273 273 273 274 274 275 275 276 275 274 275 275 275 275 276 277 278 278 279 280 281 281 282 284 286 286
272 272 271 270 271 271 272 273 273 273 272 272 271 270 270 270 271 272 272 273 273 274 274 273 274 274 274 275 275 275 275 276 277 278 278 279 280 282 283 284 284 285 286
272 271 272 272 271 271 271 271 272 273 272 271 271 270 269 268 269 270 271 271 271 273 273 273 272 273 274 273 275 278 277 278 278 279 278 278 280 282 282 283 284 285 285
272 272 271 271 272 271 271 271 271 272 272 271 270 268 266 265 266 268 269 269 269 271 271 272 273 272 273 275 276 278 279 280 280 278 278 279 281 282 283 283 284 284 284
274 273 272 272 271 271 269 270 271 271 271 271 269 269 268 265 266 267 268 269 270 270 270 271 272 273 274 275 276 278 279 280 280 280 281 281 282 284 285 285 285 285 284
275 274 274 272 270 271 271 271 271 272 271 271 270 269 267 267 266 266 267 268 269 269 271 272 271 273 274 276 278 278 279 280 280 281 282 284 285 286 285 284 284 283 283
275 275 275 274 273 274 273 272 272 271 270 270 270 269 268 268 268 268 267 267 267 267 269 270 271 274 276 277 277 278 279 280 281 282 283 284 286 287 286 287 287 286 285
275 277 276 275 275 275 274 274 271 269 270 270 270 269 269 269 270 269 268 266 266 267 270 272 274 276 277 277 278 279 279 279 281 283 284 286 288 288 288 288 287 286 286
Height
5892 5891 5890 5889 5888 5888 5887 5885 5884 5883 5881 5880 5878 5877 5875 5873 5872 5870 5869 5867 5866 5865 5863 5862 5861 5860 5858 5857 5855 5854 5852 5851 5850 5848 5847 5845 5843 5841 5840 5838 5837 5835 5834
5888 5888 5887 5886 5885 5884 5883 5882 5881 5879 5878 5876 5874 5873 5872 5870 5868 5867 5865 5864 5862 5861 5859 5858 5856 5855 5854 5853 5851 5850 5848 5846 5845 5843 5842 5840 5838 5837 5835 5833 5832 5830 5828
5883 5883 5882 5882 5881 5880 5879 5878 5877 5875 5873 5871 5870 5869 5868 5866 5864 5862 5861 5859 5858 5857 5855 5854 5852 5851 5849 5848 5846 5844 5843 5841 5840 5838 5836 5834 5833 5831 5830 5828 5826 5824 5823
5878 5878 5877 5877 5876 5875 5874 5873 5871 5870 5869 5867 5866 5864 5863 5861 5860 5858 5856 5855 5853 5852 5850 5849 5847 5845 5844 5842 5840 5839 5837 5836 5834 5832 5830 5829 5827 5825 5824 5822 5820 5818 5817
5872 5871 5871 5870 5869 5869 5868 5866 5865 5864 5863 5862 5860 5859 5857 5856 5854 5852 5851 5849 5848 5846 5845 5843 5841 5839 5837 5836 5834 5832 5831 5829 5827 5826 5824 5823 5821 5819 5817 5816 5814 5812 5811
5864 5864 5864 5863 5863 5862 5860 5859 5858 5857 5856 5855 5854 5852 5851 5849 5848 5846 5845 5843 5842 5840 5838 5836 5835 5833 5831 5829 5827 5826 5824 5822 5821 5819 5818 5816 5814 5812 5810 5809 5807 5805 5804
5856 5855 5855 5855 5854 5853 5853 5852 5851 5850 5848 5847 5846 5845 5844 5842 5841 5839 5837 5836 5834 5833 5831 5829 5828 5826 5824 5822 5820 5819 5817 5815 5814 5813 5811 5809 5807 5805 5803 5802 5800 5798 5797
5847 5846 5845 5846 5845 5845 5844 5843 5842 5841 5840 5839 5837 5836 5835 5834 5833 5831 5829 5827 5826 5825 5823 5822 5820 5818 5816 5814 5812 5811 5809 5808 5807 5805 5803 5801 5800 5798 5796 5794 5792 5791 5789
5837 5837 5836 5836 5836 5836 5835 5834 5833 5832 5831 5829 5828 5827 5826 5825 5824 5822 5821 5820 5818 5817 5815 5813 5812 5810 5808 5806 5804 5802 5801 5800 5798 5797 5795 5793 5792 5790 5788 5786 5784 5783 5781
5827 5827 5826 5825 5825 5825 5825 5824 5823 5822 5820 5819 5818 5817 5816 5815 5814 5813 5811 5811 5810 5808 5806 5805 5803 5801 5800 5797 5795 5794 5792 5791 5790 5789 5787 5785 5783 5781 5779 5778 5776 5774 5772
5816 5817 5817 5816 5815 5815 5813 5812 5811 5811 5809 5808 5807 5806 5805 5805 5804 5803 5802 5801 5800 5799 5797 5796 5794 5793 5791 5789 5787 5785 5784 5782 5781 5780 5778 5776 5774 5773 5771 5769 5767 5765 5763
5806 5805 5805 5805 5805 5803 5802 5801 5799 5798 5798 5797 5796 5795 5794 5793 5793 5793 5792 5791 5790 5789 5787 5786 5785 5784 5782 5780 5778 5777 5775 5774 5772 5771 5769 5767 5765 5764 5761 5759 5757 5755 5753
5793 5793 5793 5792 5792 5791 5790 5789 5788 5787 5786 5785 5785 5784 5783 5782 5782 5782 5781 5780 5779 5779 5777 5776 5774 5773 5772 5771 5769 5767 5766 5764 5763 5761 5760 5758 5756 5754 5752 5750 5748 5745 5743
5781 5781 5780 5780 5779 5778 5777 5776 5775 5774 5773 5773 5772 5771 5771 5771 5770 5770 5769 5769 5768 5768 5767 5765 5764 5763 5761 5760 5759 5757 5756 5754 5753 5752 5750 5748 5746 5744 5742 5740 5738 5736 5734
5767 5767 5767 5766 5766 5765 5764 5763 5761 5760 5759 5760 5759 5759 5759 5759 5759 5758 5757 5757 5757 5756 5755 5753 5752 5752 5751 5749 5748 5747 5745 5744 5743 5741 5739 5738 5736 5734 5732 5730 5728 5726 5724
5755 5754 5753 5753 5752 5751 5751 5750 5748 5748 5748 5747 5746 5746 5746 5747 5746 5746 5745 5745 5744 5743 5743 5742 5741 5740 5739 5738 5737 5736 5735 5733 5732 5730 5729 5727 5725 5723 5721 5719 5718 5716 5714
5741 5740 5740 5738 5738 5737 5736 5736 5735 5735 5734 5734 5733 5733 5733 5733 5733 5733 5733 5732 5731 5731 5731 5730 5730 5729 5728 5727 5726 5725 5724 5723 5721 5719 5718 5716 5714 5712 5711 5709 5707 5705 5703
5727 5726 5726 5725 5724 5724 5724 5723 5722 5722 5721 5721 5721 5720 5720 5720 5720 5720 5720 5719 5719 5719 5719 5718 5718 5717 5716 5715 5714 5713 5712 5711 5709 5708 5706 5705 5703 5701 5700 5698 5696 5694 5692
5713 5713 5712 5712 5711 5711 5710 5710 5709 5709 5708 5708 5708 5707 5707 5707 5707 5707 5706 5707 5707 5707 5707 5706 5706 5705 5704 5703 5702 5701 5700 5699 5698 5697 5695 5694 5692 5690 5689 5687 5685 5683 5681
5699 5699 5699 5699 5698 5698 5697 5697 5697 5696 5696 5696 5696 5696 5695 5695 5695 5695 5694 5694 5695 5695 5695 5694 5694 5693 5693 5692 5691 5690 5689 5688 5687 5685 5684 5682 5681 5679 5678 5676 5674 5672 5670
5686 5686 5685 5685 5685 5685 5685 5685 5684 5684 5684 5684 5684 5684 5684 5684 5684 5684 5683 5683 5684 5684 5683 5683 5683 5682 5681 5681 5680 5679 5678 5677 5675 5674 5673 5671 5670 5668 5667 5665 5663 5661 5658
5673 5673 5673 5673 5673 5673 5673 5673 5673 5673 5672 5672 5672 5672 5672 5672 5673 5673 5673 5672 5673 5673 5672 5672 5672 5672 5671 5670 5669 5668 5667 5665 5664 5663 5662 5660 5659 5657 5655 5654 5652 5650 5647
5661 5661 5661 5662 5662 5661 5661 5661 5661 5661 5661 5660 5661 5661 5661 5662 5662 5663 5663 5663 5662 5662 5662 5661 5661 5661 5660 5659 5658 5658 5656 5655 5654 5652 5651 5649 5647 5646 5644 5641 5639 5638 5635
5652 5651 5651 5651 5651 5651 5651 5651 5651 5651 5651 5650 5650 5650 5650 5651 5651 5651 5652 5652 5651 5651 5651 5651 5650 5650 5650 5649 5648 5647 5646 5644 5643 5642 5640 5638 5637 5635 5632 5630 5628 5626 5624
5643 5643 5642 5642 5642 5641 5641 5641 5641 5641 5640 5640 5640 5640 5640 5640 5640 5640 5641 5641 5641 5641 5641 5640 5640 5640 5639 5638 5637 5636 5635 5634 5633 5631 5630 5628 5626 5624 5622 5620 5618 5616 5614
5635 5634 5634 5634 5633 5633 5632 5632 5632 5632 5631 5631 5631 5631 5631 5631 5630 5630 5630 5630 5630 5630 5631 5631 5630 5630 5629 5628 5627 5626 5625 5624 5623 5621 5619 5618 5616 5614 5612 5610 5607 5605 5603